{"data":{"norad_id":68011,"intl_designator":"2026-039AB","name":"STARLINK-36991","alt_names":[],"object_type":"PAYLOAD","status":"ACTIVE","operator":null,"country":"US","launch_date":"2026-02-27","launch_site_code":"AFETR","launch_vehicle":null,"mission":null,"orbit_class":"UNKNOWN","rcs_meters":null,"size_class":null,"mass_kg":null,"dimensions":null,"purposes":["comms"],"wikipedia_slug":null,"has_3d_model":false,"image_url":null,"decayed_at":null,"tle_current":{"epoch":"2026-05-24T20:22:49.235808Z","epoch_age_seconds":82040,"freshness":"FRESH","line1":"1 68011U 26039AB  26144.84918097  .00015598  00000+0  57490-3 0  9994","line2":"2 68011  43.0017 338.6081 0002581 269.5540  90.5016 15.27592181 13353","mean_motion":15.27592181,"eccentricity":0.0002581,"inclination_deg":43.0017,"raan_deg":338.6081,"arg_perigee_deg":269.554,"mean_anomaly_deg":90.5016,"bstar":0.0005749,"rev_number":1335,"period_min":94.265997031835,"perigee_km":481.2417592685,"apogee_km":484.78348470337,"semimajor_km":6861.1496219859,"source":"CELESTRAK","updated_at":"2026-05-25T13:38:21.803102Z"}}}